Hourly Weather Bartativ

Today, 19 April, Monday

Time Temperature Precipitation Wind Pressure Humidity
00:00 +8°C° 0 mm 1 mps 737 mmHg 74%
01:00 +8°C° 0 mm 1 mps 736 mmHg 77%
02:00 +8°C° 0 mm 1 mps 736 mmHg 80%
03:00 +7°C° 0 mm 1 mps 736 mmHg 82%
04:00 +7°C° 0 mm 1 mps 736 mmHg 84%
05:00 +7°C° 0 mm 1 mps 736 mmHg 87%
06:00 +8°C° 0.1 mm 1 mps 735 mmHg 87%
07:00 +8°C° 0.1 mm 1 mps 735 mmHg 88%
08:00 +9°C° 0.1 mm 1 mps 735 mmHg 88%
09:00 +9°C° 0.4 mm 1 mps 735 mmHg 89%
10:00 +9°C° 0.4 mm 1 mps 735 mmHg 89%
11:00 +9°C° 0.4 mm 1 mps 735 mmHg 90%
12:00 +9°C° 0.4 mm 1 mps 735 mmHg 88%
13:00 +9°C° 0.4 mm 1 mps 735 mmHg 87%
14:00 +9°C° 0.4 mm 2 mps 735 mmHg 85%
15:00 +10°C° 0.1 mm 1 mps 735 mmHg 83%
16:00 +10°C° 0.1 mm 1 mps 735 mmHg 82%
17:00 +11°C° 0.1 mm 1 mps 734 mmHg 80%
18:00 +9°C° 0.1 mm 2 mps 734 mmHg 84%
19:00 +8°C° 0.1 mm 2 mps 734 mmHg 88%
20:00 +7°C° 0.1 mm 2 mps 734 mmHg 92%
21:00 +7°C° 0.3 mm 3 mps 734 mmHg 92%
22:00 +7°C° 0.3 mm 3 mps 734 mmHg 92%
23:00 +7°C° 0.3 mm 3 mps 734 mmHg 92%

Tomorrow, 20 April, Tuesday

Time Temperature Precipitation Wind Pressure Humidity
00:00 +5°C° 0.3 mm 3 mps 734 mmHg 92%
01:00 +6°C° 0.3 mm 2 mps 734 mmHg 93%
02:00 +6°C° 0.3 mm 2 mps 733 mmHg 93%
03:00 +6°C° 0 mm 2 mps 733 mmHg 93%
04:00 +5°C° 0 mm 2 mps 733 mmHg 93%
05:00 +5°C° 0 mm 2 mps 733 mmHg 92%
06:00 +6°C° 0.1 mm 2 mps 733 mmHg 89%
07:00 +5°C° 0.1 mm 3 mps 733 mmHg 86%
08:00 +7°C° 0.1 mm 3 mps 734 mmHg 83%
09:00 +8°C° 0.3 mm 3 mps 734 mmHg 75%
10:00 +10°C° 0.3 mm 3 mps 733 mmHg 68%
11:00 +11°C° 0.3 mm 3 mps 733 mmHg 61%
12:00 +11°C° 0.4 mm 3 mps 733 mmHg 58%
13:00 +13°C° 0.4 mm 2 mps 733 mmHg 55%
14:00 +14°C° 0.4 mm 2 mps 732 mmHg 53%
15:00 +13°C° 0.5 mm 2 mps 732 mmHg 56%
16:00 +12°C° 0.5 mm 3 mps 732 mmHg 58%
17:00 +12°C° 0.5 mm 3 mps 732 mmHg 61%
18:00 +10°C° 0.3 mm 2 mps 732 mmHg 68%
19:00 +9°C° 0.3 mm 2 mps 733 mmHg 75%
20:00 +7°C° 0.3 mm 2 mps 733 mmHg 81%
21:00 +7°C° 0 mm 1 mps 733 mmHg 82%
22:00 +7°C° 0 mm 1 mps 733 mmHg 83%
23:00 +5°C° 0 mm 0 mps 733 mmHg 84%

Day after tomorrow, 21 April, Wednesday

Time Temperature Precipitation Wind Pressure Humidity
00:00 +6°C° 0 mm 1 mps 733 mmHg 86%
01:00 +6°C° 0 mm 1 mps 733 mmHg 87%
02:00 +5°C° 0 mm 2 mps 733 mmHg 89%
03:00 +4°C° 0 mm 2 mps 733 mmHg 90%
04:00 +4°C° 0 mm 2 mps 733 mmHg 91%
05:00 +4°C° 0 mm 2 mps 733 mmHg 92%
06:00 +4°C° 0 mm 3 mps 733 mmHg 88%
07:00 +5°C° 0 mm 3 mps 733 mmHg 85%
08:00 +7°C° 0 mm 4 mps 734 mmHg 82%
09:00 +8°C° 0.1 mm 4 mps 733 mmHg 75%
10:00 +10°C° 0.1 mm 4 mps 733 mmHg 69%
11:00 +12°C° 0.1 mm 4 mps 733 mmHg 63%
12:00 +12°C° 0.3 mm 4 mps 733 mmHg 60%
13:00 +13°C° 0.3 mm 5 mps 733 mmHg 56%
14:00 +14°C° 0.3 mm 5 mps 733 mmHg 53%
15:00 +13°C° 0.2 mm 5 mps 733 mmHg 57%
16:00 +13°C° 0.2 mm 5 mps 733 mmHg 61%
17:00 +12°C° 0.2 mm 5 mps 733 mmHg 65%
18:00 +11°C° 0.2 mm 4 mps 733 mmHg 71%
19:00 +10°C° 0.2 mm 4 mps 733 mmHg 77%
20:00 +8°C° 0.2 mm 3 mps 733 mmHg 83%
21:00 +8°C° 0.1 mm 3 mps 733 mmHg 85%
22:00 +7°C° 0.1 mm 3 mps 733 mmHg 87%
23:00 +7°C° 0.1 mm 3 mps 733 mmHg 89%

22 April, Thursday

Time Temperature Precipitation Wind Pressure Humidity
00:00 +7°C° 0.1 mm 3 mps 733 mmHg 89%
01:00 +7°C° 0.1 mm 3 mps 733 mmHg 89%
02:00 +8°C° 0.1 mm 3 mps 733 mmHg 89%
03:00 +7°C° 0 mm 3 mps 733 mmHg 90%
04:00 +7°C° 0 mm 3 mps 733 mmHg 92%
05:00 +5°C° 0 mm 3 mps 733 mmHg 93%
06:00 +7°C° 0.1 mm 3 mps 734 mmHg 90%
07:00 +8°C° 0.1 mm 3 mps 734 mmHg 88%
08:00 +9°C° 0.1 mm 3 mps 734 mmHg 85%
09:00 +10°C° 0.3 mm 3 mps 734 mmHg 78%
10:00 +12°C° 0.3 mm 4 mps 734 mmHg 71%
11:00 +13°C° 0.3 mm 4 mps 734 mmHg 63%
12:00 +13°C° 0.5 mm 5 mps 734 mmHg 64%
13:00 +13°C° 0.5 mm 5 mps 734 mmHg 65%
14:00 +13°C° 0.5 mm 6 mps 734 mmHg 65%
15:00 +13°C° 0.3 mm 5 mps 734 mmHg 67%
16:00 +13°C° 0.3 mm 4 mps 733 mmHg 68%
17:00 +13°C° 0.3 mm 4 mps 733 mmHg 69%
18:00 +10°C° 0.6 mm 4 mps 734 mmHg 77%
19:00 +7°C° 0.6 mm 4 mps 734 mmHg 85%
20:00 +4°C° 0.6 mm 4 mps 735 mmHg 93%
21:00 +4°C° 0.7 mm 4 mps 735 mmHg 93%
22:00 +4°C° 0.7 mm 3 mps 735 mmHg 93%
23:00 +5°C° 0.7 mm 2 mps 735 mmHg 93%

23 April, Friday

Time Temperature Precipitation Wind Pressure Humidity
00:00 +5°C° 0.6 mm 2 mps 735 mmHg 93%
01:00 +5°C° 0.6 mm 2 mps 735 mmHg 94%
02:00 +4°C° 0.6 mm 2 mps 735 mmHg 94%
03:00 +4°C° 0 mm 2 mps 735 mmHg 92%
04:00 +4°C° 0 mm 2 mps 735 mmHg 90%
05:00 +4°C° 0 mm 3 mps 735 mmHg 87%
06:00 +4°C° 0 mm 4 mps 736 mmHg 84%
07:00 +3°C° 0 mm 5 mps 736 mmHg 81%
08:00 +3°C° 0 mm 6 mps 736 mmHg 78%
09:00 +4°C° 0 mm 6 mps 737 mmHg 74%
10:00 +4°C° 0 mm 6 mps 737 mmHg 69%
11:00 +5°C° 0 mm 6 mps 738 mmHg 65%
12:00 +5°C° 0 mm 6 mps 738 mmHg 65%
13:00 +5°C° 0 mm 6 mps 738 mmHg 65%
14:00 +5°C° 0 mm 6 mps 738 mmHg 65%
15:00 +6°C° 0 mm 5 mps 738 mmHg 66%
16:00 +6°C° 0 mm 5 mps 738 mmHg 66%
17:00 +7°C° 0 mm 5 mps 738 mmHg 67%
18:00 +5°C° 0 mm 4 mps 738 mmHg 73%
19:00 +4°C° 0 mm 4 mps 738 mmHg 79%
20:00 +3°C° 0 mm 3 mps 738 mmHg 84%
21:00 +3°C° 0 mm 3 mps 738 mmHg 86%
22:00 +2°C° 0 mm 3 mps 738 mmHg 88%
23:00 +2°C° 0 mm 3 mps 738 mmHg 90%

24 April, Saturday

Time Temperature Precipitation Wind Pressure Humidity
00:00 +1°C° 0 mm 3 mps 738 mmHg 90%
01:00 +2°C° 0 mm 2 mps 737 mmHg 91%
02:00 +2°C° 0 mm 2 mps 737 mmHg 91%
03:00 +1°C° 0 mm 2 mps 737 mmHg 91%
04:00 0°C° 0 mm 3 mps 736 mmHg 90%
05:00 0°C° 0 mm 3 mps 736 mmHg 90%
06:00 +2°C° 0 mm 3 mps 736 mmHg 82%
07:00 +4°C° 0 mm 4 mps 736 mmHg 75%
08:00 +5°C° 0 mm 4 mps 736 mmHg 67%
09:00 +6°C° 0.2 mm 5 mps 736 mmHg 70%
10:00 +5°C° 0.2 mm 6 mps 736 mmHg 73%
11:00 +5°C° 0.2 mm 7 mps 736 mmHg 76%
12:00 +5°C° 0.3 mm 7 mps 736 mmHg 73%
13:00 +5°C° 0.3 mm 7 mps 735 mmHg 70%
14:00 +5°C° 0.3 mm 7 mps 735 mmHg 67%
15:00 +5°C° 0.1 mm 7 mps 736 mmHg 67%
16:00 +5°C° 0.1 mm 7 mps 736 mmHg 67%
17:00 +4°C° 0.1 mm 7 mps 736 mmHg 66%
18:00 +3°C° 0.1 mm 6 mps 736 mmHg 74%
19:00 +1°C° 0.1 mm 5 mps 737 mmHg 81%
20:00 0°C° 0.1 mm 4 mps 738 mmHg 89%
21:00 -1°C° 0 mm 4 mps 738 mmHg 91%
22:00 0°C° 0 mm 3 mps 738 mmHg 93%
23:00 -1°C° 0 mm 3 mps 739 mmHg 95%
Show more